Time,TemperatureF,DewpointF,PressureIn,WindDirection,WindDirectionDegrees,WindSpeedMPH,WindSpeedGustMPH,Humidity,HourlyPrecipIn,Conditions,Clouds,dailyrainin,SolarRadiationWatts/m^2,SoftwareType,DateUTC
2013-07-20 00:00:00,65.7,64.0,29.60,ESE,111,0.0,0.0,95,0.00,,,0.00,0,weatherlink.com 1.10,2013-07-20 04:00:00,
2013-07-20 00:15:00,65.9,65.0,29.60,ESE,111,0.0,0.0,95,0.00,,,0.00,0,weatherlink.com 1.10,2013-07-20 04:15:00,
2013-07-20 00:30:00,65.8,64.0,29.60,ESE,111,0.0,0.0,95,0.00,,,0.00,0,weatherlink.com 1.10,2013-07-20 04:30:00,
2013-07-20 00:45:00,65.8,64.0,29.60,ESE,111,0.0,1.0,95,0.00,,,0.00,0,weatherlink.com 1.10,2013-07-20 04:45:00,
2013-07-20 01:00:00,65.6,64.0,29.60,SE,126,1.0,4.0,95,0.00,,,0.00,0,weatherlink.com 1.10,2013-07-20 05:00:00,
2013-07-20 01:15:00,66.1,65.0,29.60,East,92,0.0,2.0,95,0.00,,,0.00,0,weatherlink.com 1.10,2013-07-20 05:15:00,
2013-07-20 01:30:00,66.4,65.0,29.60,East,92,0.0,2.0,95,0.00,,,0.00,0,weatherlink.com 1.10,2013-07-20 05:30:00,
2013-07-20 01:45:00,66.6,65.0,29.59,SSE,161,0.0,2.0,95,0.00,,,0.00,0,weatherlink.com 1.10,2013-07-20 05:45:00,
2013-07-20 02:00:00,66.7,65.0,29.60,SSE,156,0.0,3.0,95,0.00,,,0.00,0,weatherlink.com 1.10,2013-07-20 06:00:00,
2013-07-20 02:15:00,66.8,65.0,29.59,SSE,155,0.0,0.0,95,0.00,,,0.00,0,weatherlink.com 1.10,2013-07-20 06:15:00,
2013-07-20 02:30:00,66.8,65.0,29.60,SSE,155,0.0,0.0,95,0.00,,,0.00,0,weatherlink.com 1.10,2013-07-20 06:30:00,
2013-07-20 02:45:00,66.8,65.0,29.59,SSE,155,0.0,0.0,95,0.00,,,0.00,0,weatherlink.com 1.10,2013-07-20 06:45:00,
2013-07-20 03:00:00,67.0,66.0,29.59,SSE,155,0.0,1.0,96,0.00,,,0.00,0,weatherlink.com 1.10,2013-07-20 07:00:00,
2013-07-20 03:15:00,67.0,66.0,29.59,SSE,155,0.0,1.0,96,0.00,,,0.00,0,weatherlink.com 1.10,2013-07-20 07:15:00,
2013-07-20 03:30:00,67.2,66.0,29.59,SSE,155,0.0,1.0,96,0.00,,,0.00,0,weatherlink.com 1.10,2013-07-20 07:30:00,
2013-07-20 03:45:00,67.3,66.0,29.59,SSE,155,0.0,2.0,96,0.00,,,0.00,0,weatherlink.com 1.10,2013-07-20 07:45:00,
2013-07-20 04:00:00,67.2,66.0,29.59,SSE,155,0.0,1.0,95,0.00,,,0.00,0,weatherlink.com 1.10,2013-07-20 08:00:00,
2013-07-20 04:15:00,67.1,66.0,29.58,SSE,155,0.0,0.0,95,0.00,,,0.00,0,weatherlink.com 1.10,2013-07-20 08:15:00,
2013-07-20 04:30:00,67.1,66.0,29.59,ESE,113,0.0,2.0,95,0.00,,,0.00,0,weatherlink.com 1.10,2013-07-20 08:30:00,
2013-07-20 04:46:00,67.0,66.0,29.59,ESE,115,1.0,2.0,95,0.00,,,0.00,0,weatherlink.com 1.10,2013-07-20 08:46:00,
2013-07-20 05:01:00,66.9,66.0,29.59,SE,145,3.0,3.0,95,0.00,,,0.00,0,weatherlink.com 1.10,2013-07-20 09:01:00,
2013-07-20 05:16:00,67.0,66.0,29.59,ENE,68,1.0,3.0,95,0.00,,,0.00,0,weatherlink.com 1.10,2013-07-20 09:16:00,
2013-07-20 05:31:00,67.1,65.0,29.59,ESE,104,2.0,3.0,94,0.00,,,0.00,0,weatherlink.com 1.10,2013-07-20 09:31:00,
2013-07-20 05:46:00,67.4,66.0,29.60,ESE,123,1.0,3.0,94,0.00,,,0.00,5,weatherlink.com 1.10,2013-07-20 09:46:00,
2013-07-20 06:01:00,67.4,66.0,29.61,SSE,153,0.0,1.0,94,0.00,,,0.00,5,weatherlink.com 1.10,2013-07-20 10:01:00,
2013-07-20 06:16:00,67.3,66.0,29.61,SSE,153,0.0,1.0,95,0.00,,,0.00,19,weatherlink.com 1.10,2013-07-20 10:16:00,
2013-07-20 06:32:00,67.4,66.0,29.62,SSE,153,0.0,1.0,95,0.00,,,0.00,16,weatherlink.com 1.10,2013-07-20 10:32:00,
2013-07-20 06:46:00,67.5,66.0,29.62,SSE,153,0.0,0.0,95,0.00,,,0.00,35,weatherlink.com 1.10,2013-07-20 10:46:00,
2013-07-20 07:01:00,67.6,66.0,29.62,SSE,153,0.0,0.0,95,0.00,,,0.00,12,weatherlink.com 1.10,2013-07-20 11:01:00,
2013-07-20 07:16:00,67.6,66.0,29.62,NE,36,1.0,2.0,95,0.00,,,0.00,11,weatherlink.com 1.10,2013-07-20 11:16:00,
2013-07-20 07:31:00,67.8,66.0,29.62,East,98,1.0,2.0,94,0.00,,,0.00,18,weatherlink.com 1.10,2013-07-20 11:31:00,
2013-07-20 07:46:00,67.7,66.0,29.62,East,98,0.0,0.0,94,0.00,,,0.00,56,weatherlink.com 1.10,2013-07-20 11:46:00,
2013-07-20 08:01:00,67.8,66.0,29.63,East,98,0.0,1.0,95,0.00,,,0.00,23,weatherlink.com 1.10,2013-07-20 12:01:00,
2013-07-20 08:16:00,67.9,66.0,29.63,East,88,0.0,2.0,94,0.00,,,0.00,77,weatherlink.com 1.10,2013-07-20 12:16:00,
2013-07-20 08:31:00,68.4,67.0,29.62,East,88,0.0,2.0,94,0.00,,,0.00,142,weatherlink.com 1.10,2013-07-20 12:31:00,
2013-07-20 08:46:00,69.0,67.0,29.61,East,94,0.0,2.0,94,0.00,,,0.00,76,weatherlink.com 1.10,2013-07-20 12:46:00,
2013-07-20 09:01:00,69.9,68.0,29.61,North,5,0.0,1.0,94,0.00,,,0.00,213,weatherlink.com 1.10,2013-07-20 13:01:00,
2013-07-20 09:16:00,71.1,69.0,29.60,ESE,123,0.0,3.0,92,0.00,,,0.00,167,weatherlink.com 1.10,2013-07-20 13:16:00,
2013-07-20 09:31:00,71.6,67.0,29.60,East,82,3.0,5.0,86,0.00,,,0.00,171,weatherlink.com 1.10,2013-07-20 13:31:00,
2013-07-20 09:46:00,71.5,68.0,29.60,SSW,207,1.0,4.0,87,0.00,,,0.00,128,weatherlink.com 1.10,2013-07-20 13:46:00,
2013-07-20 10:01:00,71.7,67.0,29.60,SSE,153,0.0,7.0,86,0.00,,,0.00,213,weatherlink.com 1.10,2013-07-20 14:01:00,
2013-07-20 10:16:00,72.5,68.0,29.60,NNE,14,0.0,6.0,86,0.00,,,0.00,128,weatherlink.com 1.10,2013-07-20 14:16:00,
2013-07-20 10:31:00,72.0,68.0,29.60,SE,142,0.0,3.0,86,0.00,,,0.00,114,weatherlink.com 1.10,2013-07-20 14:31:00,
2013-07-20 10:46:00,71.9,69.0,29.60,SE,130,0.0,3.0,89,0.00,,,0.00,137,weatherlink.com 1.10,2013-07-20 14:46:00,
2013-07-20 11:01:00,72.7,69.0,29.60,NE,40,0.0,4.0,87,0.00,,,0.00,330,weatherlink.com 1.10,2013-07-20 15:01:00,
2013-07-20 11:16:00,73.9,69.0,29.60,NNW,333,0.0,4.0,84,0.00,,,0.00,113,weatherlink.com 1.10,2013-07-20 15:16:00,
2013-07-20 11:31:00,73.4,68.0,29.59,WNW,294,0.0,4.0,84,0.00,,,0.00,90,weatherlink.com 1.10,2013-07-20 15:31:00,
2013-07-20 11:46:00,72.6,68.0,29.59,WNW,294,0.0,1.0,86,0.00,,,0.00,209,weatherlink.com 1.10,2013-07-20 15:46:00,
2013-07-20 12:01:00,73.0,68.0,29.59,NE,41,1.0,2.0,85,0.00,,,0.00,86,weatherlink.com 1.10,2013-07-20 16:01:00,
2013-07-20 12:16:00,72.9,68.0,29.59,ENE,76,0.0,2.0,85,0.00,,,0.00,123,weatherlink.com 1.10,2013-07-20 16:16:00,
2013-07-20 12:31:00,73.7,70.0,29.58,ESE,108,0.0,2.0,87,0.00,,,0.00,294,weatherlink.com 1.10,2013-07-20 16:31:00,
2013-07-20 12:46:00,74.6,69.0,29.57,NNE,13,0.0,2.0,82,0.00,,,0.00,306,weatherlink.com 1.10,2013-07-20 16:46:00,
2013-07-20 13:01:00,76.2,69.0,29.57,SW,231,2.0,3.0,78,0.00,,,0.00,802,weatherlink.com 1.10,2013-07-20 17:01:00,
2013-07-20 13:16:00,77.2,70.0,29.56,SSE,157,0.0,5.0,79,0.00,,,0.00,380,weatherlink.com 1.10,2013-07-20 17:16:00,
2013-07-20 13:31:00,76.9,70.0,29.56,North,9,0.0,3.0,78,0.00,,,0.00,44,weatherlink.com 1.10,2013-07-20 17:31:00,
2013-07-20 13:46:00,68.2,64.0,29.61,NNW,333,0.0,7.0,86,0.00,,,0.00,33,weatherlink.com 1.10,2013-07-20 17:46:00,
2013-07-20 14:01:00,65.8,63.0,29.60,SSE,166,0.0,6.0,91,0.00,,,0.00,98,weatherlink.com 1.10,2013-07-20 18:01:00,
2013-07-20 14:16:00,65.3,63.0,29.60,SSE,149,1.0,3.0,93,0.00,,,0.00,686,weatherlink.com 1.10,2013-07-20 18:16:00,
2013-07-20 14:32:00,67.5,66.0,29.60,ESE,121,0.0,1.0,94,0.00,,,0.00,278,weatherlink.com 1.10,2013-07-20 18:32:00,
2013-07-20 14:47:00,70.9,69.0,29.59,South,169,0.0,2.0,94,0.00,,,0.00,694,weatherlink.com 1.10,2013-07-20 18:47:00,
2013-07-20 15:02:00,72.5,69.0,29.59,SE,145,2.0,5.0,89,0.00,,,0.00,371,weatherlink.com 1.10,2013-07-20 19:02:00,
2013-07-20 15:32:00,73.4,69.0,29.60,ENE,68,0.0,3.0,87,0.00,,,0.00,251,weatherlink.com 1.10,2013-07-20 19:32:00,
2013-07-20 15:47:00,73.9,69.0,29.60,East,94,0.0,3.0,84,0.00,,,0.00,373,weatherlink.com 1.10,2013-07-20 19:47:00,
2013-07-20 16:02:00,74.6,69.0,29.60,South,181,0.0,8.0,82,0.00,,,0.00,142,weatherlink.com 1.10,2013-07-20 20:02:00,
2013-07-20 16:17:00,75.1,68.0,29.60,ESE,109,0.0,10.0,78,0.00,,,0.00,323,weatherlink.com 1.10,2013-07-20 20:17:00,
2013-07-20 16:32:00,75.1,68.0,29.61,WNW,292,2.0,4.0,78,0.00,,,0.00,265,weatherlink.com 1.10,2013-07-20 20:32:00,
2013-07-20 16:47:00,75.2,66.0,29.61,East,84,0.0,5.0,74,0.00,,,0.00,121,weatherlink.com 1.10,2013-07-20 20:47:00,
2013-07-20 17:02:00,74.9,68.0,29.61,NW,323,1.0,3.0,79,0.00,,,0.00,162,weatherlink.com 1.10,2013-07-20 21:02:00,
2013-07-20 17:17:00,75.0,66.0,29.62,SSE,153,0.0,6.0,74,0.00,,,0.00,132,weatherlink.com 1.10,2013-07-20 21:17:00,
2013-07-20 17:32:00,74.6,64.0,29.63,SE,129,3.0,5.0,69,0.00,,,0.00,84,weatherlink.com 1.10,2013-07-20 21:32:00,
2013-07-20 17:47:00,73.4,61.0,29.64,SSE,163,0.0,4.0,66,0.00,,,0.00,63,weatherlink.com 1.10,2013-07-20 21:47:00,
2013-07-20 18:17:00,72.7,62.0,29.64,East,83,0.0,3.0,68,0.00,,,0.00,63,weatherlink.com 1.10,2013-07-20 22:17:00,
2013-07-20 18:32:00,72.4,64.0,29.65,NE,53,0.0,3.0,76,0.00,,,0.00,42,weatherlink.com 1.10,2013-07-20 22:32:00,
2013-07-20 18:47:00,71.7,62.0,29.65,WSW,242,1.0,6.0,71,0.00,,,0.00,35,weatherlink.com 1.10,2013-07-20 22:47:00,
2013-07-20 19:02:00,71.1,61.0,29.66,NW,323,0.0,5.0,70,0.00,,,0.00,33,weatherlink.com 1.10,2013-07-20 23:02:00,
2013-07-20 19:17:00,71.2,61.0,29.66,NW,315,0.0,3.0,69,0.00,,,0.00,39,weatherlink.com 1.10,2013-07-20 23:17:00,
2013-07-20 19:47:00,70.5,61.0,29.68,NNW,342,0.0,1.0,71,0.00,,,0.00,28,weatherlink.com 1.10,2013-07-20 23:47:00,
2013-07-20 20:02:00,69.7,60.0,29.68,ENE,67,0.0,1.0,71,0.00,,,0.00,16,weatherlink.com 1.10,2013-07-21 00:02:00,
2013-07-20 20:32:00,67.8,60.0,29.69,ENE,67,0.0,0.0,75,0.00,,,0.00,5,weatherlink.com 1.10,2013-07-21 00:32:00,
2013-07-20 20:47:00,67.0,61.0,29.70,ENE,67,0.0,0.0,80,0.00,,,0.00,0,weatherlink.com 1.10,2013-07-21 00:47:00,
2013-07-20 21:02:00,67.1,60.0,29.70,NNW,342,2.0,4.0,77,0.00,,,0.00,0,weatherlink.com 1.10,2013-07-21 01:02:00,
2013-07-20 21:32:00,65.8,59.0,29.72,NW,323,0.0,3.0,78,0.00,,,0.00,0,weatherlink.com 1.10,2013-07-21 01:32:00,
2013-07-20 21:47:00,66.0,58.0,29.73,WNW,286,1.0,3.0,76,0.00,,,0.00,0,weatherlink.com 1.10,2013-07-21 01:47:00,
2013-07-20 22:02:00,65.5,58.0,29.73,NW,309,1.0,4.0,77,0.00,,,0.00,0,weatherlink.com 1.10,2013-07-21 02:02:00,
2013-07-20 22:17:00,65.2,59.0,29.74,NW,308,0.0,0.0,80,0.00,,,0.00,0,weatherlink.com 1.10,2013-07-21 02:17:00,
2013-07-20 22:32:00,64.4,60.0,29.75,NW,308,0.0,0.0,85,0.00,,,0.00,0,weatherlink.com 1.10,2013-07-21 02:32:00,
2013-07-20 22:47:00,63.7,60.0,29.75,NW,308,0.0,0.0,86,0.00,,,0.00,0,weatherlink.com 1.10,2013-07-21 02:47:00,
2013-07-20 23:02:00,63.1,59.0,29.75,NW,308,0.0,0.0,86,0.00,,,0.00,0,weatherlink.com 1.10,2013-07-21 03:02:00,
2013-07-20 23:17:00,63.0,59.0,29.76,NW,308,0.0,0.0,87,0.00,,,0.00,0,weatherlink.com 1.10,2013-07-21 03:17:00,
2013-07-20 23:32:00,63.1,60.0,29.76,NW,308,0.0,0.0,88,0.00,,,0.00,0,weatherlink.com 1.10,2013-07-21 03:32:00,
2013-07-20 23:47:00,62.9,59.0,29.77,NW,308,0.0,0.0,88,0.00,,,0.00,0,weatherlink.com 1.10,2013-07-21 03:47:00,